| time (UTC) | temp C | wind direction | speed KPH | gust KPH | rain 1hr cm | rain 24hr cm | rain mn cm | humidity % | barometer mb |
| 20260508073008 | 10 | 233 | 12.9 | 17.7 | 0.00 | 0.00 | 0.00 | 72 | 1023.5 |
| 20260508071507 | 10 | 163 | 8.0 | 14.5 | 0.00 | 0.00 | 0.00 | 74 | 1023.4 |
| 20260508070003 | 10 | 166 | 11.3 | 16.1 | 0.00 | 0.00 | 0.00 | 76 | 1023.1 |
| 20260508064620 | 10 | 126 | 11.3 | 17.7 | 0.00 | 0.00 | 0.00 | 78 | 1022.9 |
| 20260508063109 | 10 | 122 | 11.3 | 14.5 | 0.00 | 0.00 | 0.00 | 80 | 1022.8 |
| 20260508061606 | 10 | 127 | 6.4 | 11.3 | 0.00 | 0.00 | 0.00 | 82 | 1022.6 |
| 20260508054548 | 9 | 141 | 0.0 | 3.2 | 0.00 | 0.00 | 0.00 | 86 | 1022.2 |
| 20260508053043 | 7 | 138 | 0.0 | 3.2 | 0.00 | 0.00 | 0.00 | 87 | 1022.1 |
| 20260508051556 | 6 | 221 | 3.2 | 4.8 | 0.00 | 0.00 | 0.00 | 87 | 1022.1 |
| 20260508050039 | 6 | 227 | 1.6 | 3.2 | 0.00 | 0.00 | 0.00 | 88 | 1022.0 |
| 20260508044537 | 5 | 232 | 1.6 | 3.2 | 0.00 | 0.00 | 0.00 | 88 | 1021.9 |
| 20260508043032 | 5 | 226 | 1.6 | 3.2 | 0.00 | 0.00 | 0.00 | 89 | 1021.8 |
| 20260508041528 | 4 | 221 | 3.2 | 4.8 | 0.00 | 0.00 | 0.00 | 89 | 1021.7 |
| 20260508040026 | 3 | 226 | 3.2 | 4.8 | 0.00 | 0.00 | 0.00 | 89 | 1021.6 |
| 20260508034537 | 3 | 225 | 1.6 | 4.8 | 0.00 | 0.00 | 0.00 | 88 | 1021.6 |
| 20260508033023 | 3 | 209 | 1.6 | 4.8 | 0.00 | 0.00 | 0.00 | 88 | 1021.5 |
| 20260508031522 | 3 | 238 | 4.8 | 6.4 | 0.00 | 0.00 | 0.00 | 88 | 1021.5 |
| 20260508030020 | 3 | 233 | 4.8 | 6.4 | 0.00 | 0.00 | 0.00 | 88 | 1021.4 |
| 20260508024540 | 3 | 240 | 4.8 | 6.4 | 0.00 | 0.00 | 0.00 | 88 | 1021.2 |
| 20260508023015 | 3 | 232 | 3.2 | 4.8 | 0.00 | 0.00 | 0.00 | 88 | 1021.2 |
| 20260508021519 | 3 | 219 | 3.2 | 6.4 | 0.00 | 0.00 | 0.00 | 88 | 1021.1 |
| 20260508020013 | 4 | 216 | 3.2 | 4.8 | 0.00 | 0.00 | 0.00 | 88 | 1021.0 |
| 20260508014512 | 4 | 227 | 3.2 | 6.4 | 0.00 | 0.00 | 0.00 | 88 | 1020.9 |
| 20260508013013 | 3 | 231 | 3.2 | 6.4 | 0.00 | 0.00 | 0.00 | 88 | 1020.9 |
| 20260508011506 | 3 | 238 | 3.2 | 6.4 | 0.00 | 0.00 | 0.00 | 87 | 1020.8 |
| 20260508010008 | 3 | 245 | 3.2 | 6.4 | 0.00 | 0.00 | 0.00 | 87 | 1020.8 |
| 20260508004503 | 4 | 249 | 3.2 | 4.8 | 0.00 | 0.00 | 0.00 | 86 | 1020.7 |
| 20260508003001 | 4 | 231 | 3.2 | 6.4 | 0.00 | 0.00 | 0.00 | 86 | 1020.6 |
| 20260508001600 | 4 | 242 | 3.2 | 4.8 | 0.00 | 0.00 | 0.00 | 86 | 1020.7 |
| 20260508000058 | 4 | 233 | 3.2 | 4.8 | 0.00 | 0.00 | 0.00 | 85 | 1020.6 |
| 20260507234558 | 5 | 240 | 3.2 | 4.8 | 0.00 | 0.00 | 0.00 | 84 | 1020.6 |
| 20260507233058 | 5 | 231 | 3.2 | 4.8 | 0.00 | 0.00 | 0.00 | 83 | 1020.6 |
| 20260507231555 | 5 | 236 | 1.6 | 4.8 | 0.00 | 0.00 | 0.00 | 83 | 1020.6 |
| 20260507230105 | 5 | 236 | 1.6 | 3.2 | 0.00 | 0.00 | 0.00 | 82 | 1020.5 |
| 20260507224552 | 5 | 236 | 1.6 | 3.2 | 0.00 | 0.00 | 0.00 | 81 | 1020.4 |
| 20260507223044 | 5 | 245 | 1.6 | 3.2 | 0.00 | 0.00 | 0.00 | 80 | 1020.4 |
| 20260507221544 | 6 | 233 | 1.6 | 4.8 | 0.00 | 0.00 | 0.00 | 79 | 1020.4 |
| 20260507220039 | 6 | 224 | 1.6 | 4.8 | 0.00 | 0.00 | 0.00 | 78 | 1020.3 |
| 20260507214538 | 6 | 226 | 1.6 | 4.8 | 0.00 | 0.00 | 0.00 | 76 | 1020.2 |
| 20260507213037 | 7 | 250 | 0.0 | 3.2 | 0.00 | 0.00 | 0.00 | 75 | 1020.1 |
| 20260507211535 | 8 | 219 | 0.0 | 1.6 | 0.00 | 0.00 | 0.00 | 71 | 1020.2 |
| 20260507210038 | 10 | 46 | 0.0 | 8.0 | 0.00 | 0.00 | 0.00 | 69 | 1019.9 |
| 20260507204532 | 10 | 48 | 6.4 | 8.0 | 0.00 | 0.00 | 0.00 | 70 | 1019.8 |
| 20260507203051 | 10 | 60 | 4.8 | 8.0 | 0.00 | 0.00 | 0.00 | 71 | 1019.7 |
| 20260507201532 | 10 | 53 | 6.4 | 11.3 | 0.00 | 0.00 | 0.00 | 71 | 1019.6 |
| 20260507200028 | 10 | 39 | 8.0 | 12.9 | 0.00 | 0.00 | 0.00 | 73 | 1019.4 |
| 20260507194529 | 10 | 46 | 8.0 | 12.9 | 0.00 | 0.00 | 0.00 | 72 | 1019.4 |
| 20260507193026 | 10 | 41 | 6.4 | 12.9 | 0.00 | 0.00 | 0.00 | 71 | 1019.2 |
| 20260507191523 | 10 | 34 | 9.7 | 12.9 | 0.00 | 0.00 | 0.00 | 71 | 1019.1 |
| 20260507190022 | 11 | 41 | 8.0 | 12.9 | 0.00 | 0.00 | 0.00 | 71 | 1018.9 |
| 20260507184523 | 11 | 56 | 8.0 | 12.9 | 0.00 | 0.00 | 0.00 | 67 | 1018.7 |
| 20260507183018 | 11 | 35 | 9.7 | 14.5 | 0.00 | 0.00 | 0.00 | 69 | 1018.6 |
| 20260507181517 | 11 | 35 | 8.0 | 14.5 | 0.00 | 0.00 | 0.00 | 69 | 1018.6 |
| 20260507180021 | 11 | 37 | 11.3 | 14.5 | 0.00 | 0.00 | 0.00 | 67 | 1018.4 |
| 20260507174523 | 11 | 356 | 11.3 | 17.7 | 0.00 | 0.00 | 0.00 | 68 | 1018.3 |
| 20260507173031 | 11 | 23 | 12.9 | 19.3 | 0.00 | 0.00 | 0.00 | 69 | 1018.2 |
| 20260507171520 | 11 | 345 | 12.9 | 19.3 | 0.00 | 0.00 | 0.00 | 67 | 1018.1 |
| 20260507170013 | 11 | 28 | 11.3 | 22.5 | 0.00 | 0.00 | 0.00 | 68 | 1017.8 |
| 20260507164612 | 11 | 345 | 17.7 | 24.1 | 0.00 | 0.00 | 0.00 | 69 | 1017.8 |
| 20260507163009 | 11 | 338 | 16.1 | 20.9 | 0.00 | 0.00 | 0.00 | 66 | 1017.8 |
| 20260507161508 | 11 | 356 | 16.1 | 19.3 | 0.00 | 0.00 | 0.00 | 67 | 1017.8 |
| 20260507160011 | 11 | 340 | 12.9 | 17.7 | 0.00 | 0.00 | 0.00 | 68 | 1018.0 |
| 20260507154508 | 11 | 43 | 12.9 | 17.7 | 0.00 | 0.00 | 0.00 | 69 | 1018.0 |
| 20260507153007 | 11 | 23 | 11.3 | 17.7 | 0.00 | 0.00 | 0.00 | 70 | 1018.0 |
| 20260507151505 | 10 | 5 | 14.5 | 19.3 | 0.00 | 0.00 | 0.00 | 70 | 1017.9 |
| 20260507150005 | 11 | 347 | 14.5 | 17.7 | 0.00 | 0.00 | 0.00 | 71 | 1017.8 |
| 20260507144505 | 11 | 7 | 12.9 | 17.7 | 0.00 | 0.00 | 0.00 | 71 | 1017.9 |
| 20260507143003 | 11 | 39 | 11.3 | 17.7 | 0.00 | 0.00 | 0.00 | 71 | 1017.9 |
| 20260507141502 | 11 | 8 | 11.3 | 17.7 | 0.00 | 0.00 | 0.00 | 73 | 1017.9 |
| 20260507140001 | 11 | 24 | 11.3 | 17.7 | 0.00 | 0.00 | 0.00 | 73 | 1018.0 |
| 20260507134600 | 11 | 341 | 11.3 | 16.1 | 0.00 | 0.00 | 0.00 | 73 | 1018.0 |
| 20260507133144 | 10 | 23 | 12.9 | 17.7 | 0.00 | 0.00 | 0.00 | 73 | 1018.0 |
| 20260507131559 | 10 | 356 | 9.7 | 12.9 | 0.00 | 0.00 | 0.00 | 74 | 1017.9 |
| 20260507130104 | 10 | 2 | 11.3 | 14.5 | 0.00 | 0.00 | 0.00 | 73 | 1017.8 |
| 20260507124605 | 10 | 32 | 9.7 | 14.5 | 0.00 | 0.00 | 0.00 | 74 | 1017.7 |
| 20260507123055 | 10 | 34 | 9.7 | 14.5 | 0.00 | 0.00 | 0.00 | 74 | 1017.7 |
| 20260507121553 | 10 | 6 | 9.7 | 14.5 | 0.00 | 0.00 | 0.00 | 74 | 1017.6 |
| 20260507120053 | 10 | 30 | 9.7 | 12.9 | 0.00 | 0.00 | 0.00 | 74 | 1017.6 |
| 20260507114600 | 10 | 13 | 9.7 | 12.9 | 0.00 | 0.00 | 0.00 | 75 | 1017.6 |
| 20260507113050 | 10 | 34 | 9.7 | 14.5 | 0.00 | 0.00 | 0.00 | 76 | 1017.6 |
| 20260507111549 | 10 | 45 | 9.7 | 14.5 | 0.00 | 0.00 | 0.00 | 76 | 1017.5 |
| 20260507110049 | 10 | 28 | 9.7 | 14.5 | 0.00 | 0.00 | 0.00 | 77 | 1017.5 |
| 20260507104547 | 10 | 37 | 8.0 | 14.5 | 0.00 | 0.00 | 0.00 | 77 | 1017.4 |
| 20260507103051 | 10 | 25 | 8.0 | 12.9 | 0.00 | 0.00 | 0.00 | 77 | 1017.4 |
| 20260507101548 | 10 | 341 | 8.0 | 12.9 | 0.00 | 0.00 | 0.00 | 77 | 1017.3 |
| 20260507100044 | 10 | 26 | 8.0 | 16.1 | 0.00 | 0.00 | 0.00 | 77 | 1017.2 |
| 20260507094554 | 10 | 20 | 9.7 | 16.1 | 0.00 | 0.00 | 0.00 | 77 | 1017.2 |
| 20260507093042 | 10 | 40 | 9.7 | 14.5 | 0.00 | 0.00 | 0.00 | 78 | 1017.1 |
| 20260507091540 | 10 | 349 | 12.9 | 17.7 | 0.00 | 0.00 | 0.00 | 77 | 1017.0 |
| 20260507090042 | 10 | 339 | 14.5 | 19.3 | 0.00 | 0.00 | 0.00 | 77 | 1016.8 |
| 20260507084540 | 10 | 357 | 14.5 | 20.9 | 0.00 | 0.00 | 0.00 | 77 | 1016.7 |
| 20260507083038 | 10 | 352 | 14.5 | 17.7 | 0.00 | 0.00 | 0.00 | 77 | 1016.6 |
| 20260507081539 | 10 | 23 | 12.9 | 17.7 | 0.00 | 0.00 | 0.00 | 78 | 1016.4 |
| 20260507080034 | 10 | 6 | 9.7 | 12.9 | 0.00 | 0.00 | 0.00 | 78 | 1016.3 |
| 20260507074533 | 10 | 353 | 3.2 | 6.4 | 0.00 | 0.00 | 0.00 | 77 | 1016.3 |